Time,TemperatureF,DewpointF,PressureIn,WindDirection,WindDirectionDegrees,WindSpeedMPH,WindSpeedGustMPH,Humidity,HourlyPrecipIn,Conditions,Clouds,dailyrainin,SoftwareType,DateUTC
2013-05-01 00:01:00,64.0,49.8,29.84,East,95,0.1,1.1,60,0.00,,,0.00,WeatherDisplay:10.37,2013-05-01 05:01:00,
2013-05-01 00:06:00,63.6,49.9,29.84,ENE,69,0.0,0.0,61,0.00,,,0.00,WeatherDisplay:10.37,2013-05-01 05:06:00,
2013-05-01 00:11:00,63.4,49.7,29.84,ENE,70,0.0,0.0,61,0.00,,,0.00,WeatherDisplay:10.37,2013-05-01 05:11:00,
2013-05-01 00:16:00,63.5,49.8,29.85,South,190,0.0,0.0,61,0.00,,,0.00,WeatherDisplay:10.37,2013-05-01 05:16:00,
2013-05-01 00:21:00,63.5,49.8,29.85,SSE,163,0.0,0.0,61,0.00,,,0.00,WeatherDisplay:10.37,2013-05-01 05:21:00,
2013-05-01 00:26:00,63.3,49.6,29.85,SE,143,0.0,0.0,61,0.00,,,0.00,WeatherDisplay:10.37,2013-05-01 05:26:00,
2013-05-01 00:31:00,63.1,49.9,29.85,SSE,152,0.2,1.1,62,0.00,,,0.00,WeatherDisplay:10.37,2013-05-01 05:31:00,
2013-05-01 00:36:00,63.0,49.8,29.85,SE,136,0.5,2.3,62,0.00,,,0.00,WeatherDisplay:10.37,2013-05-01 05:36:00,
2013-05-01 00:41:00,63.0,49.8,29.85,ESE,121,0.0,0.0,62,0.00,,,0.00,WeatherDisplay:10.37,2013-05-01 05:41:00,
2013-05-01 00:46:00,62.8,49.6,29.85,SSE,166,0.0,2.0,62,0.00,,,0.00,WeatherDisplay:10.37,2013-05-01 05:46:00,
2013-05-01 00:51:00,62.6,49.8,29.85,SE,145,0.0,0.0,63,0.00,,,0.00,WeatherDisplay:10.37,2013-05-01 05:51:00,
2013-05-01 00:56:00,62.6,49.8,29.85,SSE,152,0.0,0.0,63,0.00,,,0.00,WeatherDisplay:10.37,2013-05-01 05:56:00,
2013-05-01 01:01:00,62.4,49.6,29.85,SE,141,0.0,0.0,63,0.00,,,0.00,WeatherDisplay:10.37,2013-05-01 06:01:00,
2013-05-01 01:06:00,62.3,50.0,29.85,SE,134,0.3,3.5,64,0.00,,,0.00,WeatherDisplay:10.37,2013-05-01 06:06:00,
2013-05-01 01:11:00,62.4,50.1,29.85,SSE,159,0.0,0.0,64,0.00,,,0.00,WeatherDisplay:10.37,2013-05-01 06:11:00,
2013-05-01 01:16:00,62.2,49.9,29.85,East,91,0.1,0.0,64,0.00,,,0.00,WeatherDisplay:10.37,2013-05-01 06:16:00,
2013-05-01 01:21:00,62.0,50.1,29.85,ESE,104,0.0,0.0,65,0.00,,,0.00,WeatherDisplay:10.37,2013-05-01 06:21:00,
2013-05-01 01:26:00,62.0,50.1,29.85,East,87,0.2,1.0,65,0.00,,,0.00,WeatherDisplay:10.37,2013-05-01 06:26:00,
2013-05-01 01:31:00,62.1,50.2,29.85,SE,127,0.1,1.1,65,0.00,,,0.00,WeatherDisplay:10.37,2013-05-01 06:31:00,
2013-05-01 01:36:00,62.3,50.4,29.85,ESE,106,0.3,1.1,65,0.00,,,0.00,WeatherDisplay:10.37,2013-05-01 06:36:00,
2013-05-01 01:41:00,62.6,50.7,29.85,ESE,108,0.2,1.1,65,0.00,,,0.00,WeatherDisplay:10.37,2013-05-01 06:41:00,
2013-05-01 01:46:00,62.8,50.9,29.85,ESE,106,0.0,1.1,65,0.00,,,0.00,WeatherDisplay:10.37,2013-05-01 06:46:00,
2013-05-01 01:51:00,62.8,50.9,29.85,ESE,105,0.2,1.1,65,0.00,,,0.00,WeatherDisplay:10.37,2013-05-01 06:51:00,
2013-05-01 01:56:00,62.8,51.3,29.85,ESE,122,0.3,1.1,66,0.00,,,0.00,WeatherDisplay:10.37,2013-05-01 06:56:00,
2013-05-01 02:01:00,62.8,51.3,29.85,SW,216,0.0,0.0,66,0.00,,,0.00,WeatherDisplay:10.37,2013-05-01 07:01:00,
2013-05-01 02:06:00,62.7,51.6,29.85,East,98,0.2,0.0,67,0.00,,,0.00,WeatherDisplay:10.37,2013-05-01 07:06:00,
2013-05-01 02:11:00,62.5,51.4,29.85,SE,127,0.1,1.0,67,0.00,,,0.00,WeatherDisplay:10.37,2013-05-01 07:11:00,
2013-05-01 02:16:00,62.4,51.7,29.85,East,92,0.0,1.1,68,0.00,,,0.00,WeatherDisplay:10.37,2013-05-01 07:16:00,
2013-05-01 02:21:00,62.2,51.5,29.85,ESE,108,0.0,1.1,68,0.00,,,0.00,WeatherDisplay:10.37,2013-05-01 07:21:00,
2013-05-01 02:26:00,62.2,51.9,29.85,East,96,0.0,0.0,69,0.00,,,0.00,WeatherDisplay:10.37,2013-05-01 07:26:00,
2013-05-01 02:31:00,62.1,51.8,29.85,East,100,0.0,1.1,69,0.00,,,0.00,WeatherDisplay:10.37,2013-05-01 07:31:00,
2013-05-01 02:36:00,61.9,52.0,29.85,ESE,120,0.2,0.0,70,0.00,,,0.00,WeatherDisplay:10.37,2013-05-01 07:36:00,
2013-05-01 02:41:00,61.8,52.3,29.85,SE,140,0.0,0.0,71,0.00,,,0.00,WeatherDisplay:10.37,2013-05-01 07:41:00,
2013-05-01 02:46:00,61.8,52.3,29.85,ESE,104,0.0,1.1,71,0.00,,,0.00,WeatherDisplay:10.37,2013-05-01 07:46:00,
2013-05-01 02:52:00,61.7,52.6,29.85,ESE,123,0.0,1.1,72,0.00,,,0.00,WeatherDisplay:10.37,2013-05-01 07:52:00,
2013-05-01 02:57:00,61.6,52.5,29.85,SE,130,0.2,0.0,72,0.00,,,0.00,WeatherDisplay:10.37,2013-05-01 07:57:00,
2013-05-01 03:02:00,61.5,52.8,29.85,East,94,0.0,0.0,73,0.00,,,0.00,WeatherDisplay:10.37,2013-05-01 08:02:00,
2013-05-01 03:07:00,61.3,52.6,29.86,ESE,117,0.4,0.0,73,0.00,,,0.00,WeatherDisplay:10.37,2013-05-01 08:07:00,
2013-05-01 03:12:00,61.2,52.5,29.86,ESE,111,0.0,0.0,73,0.00,,,0.00,WeatherDisplay:10.37,2013-05-01 08:12:00,
2013-05-01 03:17:00,61.0,52.7,29.86,SSE,148,0.0,0.0,74,0.00,,,0.00,WeatherDisplay:10.37,2013-05-01 08:17:00,
2013-05-01 03:22:00,60.7,52.4,29.86,SSE,148,0.0,0.0,74,0.00,,,0.00,WeatherDisplay:10.37,2013-05-01 08:22:00,
2013-05-01 03:27:00,60.4,52.4,29.86,SSE,148,0.0,0.0,75,0.00,,,0.00,WeatherDisplay:10.37,2013-05-01 08:27:00,
2013-05-01 03:32:00,60.4,52.4,29.86,ESE,108,0.0,0.0,75,0.00,,,0.00,WeatherDisplay:10.37,2013-05-01 08:32:00,
2013-05-01 03:37:00,60.3,52.3,29.86,ESE,108,0.0,0.0,75,0.00,,,0.00,WeatherDisplay:10.37,2013-05-01 08:37:00,
2013-05-01 03:42:00,60.0,52.4,29.86,ESE,108,0.0,0.0,76,0.00,,,0.00,WeatherDisplay:10.37,2013-05-01 08:42:00,
2013-05-01 03:47:00,60.0,52.4,29.86,ESE,107,0.0,0.0,76,0.00,,,0.00,WeatherDisplay:10.37,2013-05-01 08:47:00,
2013-05-01 03:52:00,60.0,52.4,29.86,ESE,108,0.0,0.0,76,0.00,,,0.00,WeatherDisplay:10.37,2013-05-01 08:52:00,
2013-05-01 03:57:00,59.9,52.7,29.87,ESE,108,0.0,0.0,77,0.00,,,0.00,WeatherDisplay:10.37,2013-05-01 08:57:00,
2013-05-01 04:02:00,59.8,52.6,29.86,East,93,0.0,0.0,77,0.00,,,0.00,WeatherDisplay:10.37,2013-05-01 09:02:00,
2013-05-01 04:07:00,59.8,52.9,29.87,East,94,0.0,0.0,78,0.00,,,0.00,WeatherDisplay:10.37,2013-05-01 09:07:00,
2013-05-01 04:12:00,59.8,52.9,29.87,ESE,103,0.0,0.0,78,0.00,,,0.00,WeatherDisplay:10.37,2013-05-01 09:12:00,
2013-05-01 04:17:00,59.9,53.0,29.87,ESE,103,0.0,0.0,78,0.00,,,0.00,WeatherDisplay:10.37,2013-05-01 09:17:00,
2013-05-01 04:22:00,59.9,53.0,29.87,ESE,103,0.0,0.0,78,0.00,,,0.00,WeatherDisplay:10.37,2013-05-01 09:22:00,
2013-05-01 04:27:00,60.1,53.2,29.87,ESE,103,0.0,1.1,78,0.00,,,0.00,WeatherDisplay:10.37,2013-05-01 09:27:00,
2013-05-01 04:32:00,60.1,53.2,29.87,East,93,0.2,1.1,78,0.00,,,0.00,WeatherDisplay:10.37,2013-05-01 09:32:00,
2013-05-01 04:37:00,60.0,53.1,29.87,East,85,0.0,0.0,78,0.00,,,0.00,WeatherDisplay:10.37,2013-05-01 09:37:00,
2013-05-01 04:42:00,59.9,53.0,29.87,East,88,0.0,0.0,78,0.00,,,0.00,WeatherDisplay:10.37,2013-05-01 09:42:00,
2013-05-01 04:47:00,59.9,53.4,29.87,East,82,0.0,0.0,79,0.00,,,0.00,WeatherDisplay:10.37,2013-05-01 09:47:00,
2013-05-01 04:52:00,60.0,53.5,29.87,East,89,0.0,0.0,79,0.00,,,0.00,WeatherDisplay:10.37,2013-05-01 09:52:00,
2013-05-01 04:57:00,60.0,53.1,29.87,East,92,0.0,0.0,78,0.00,,,0.00,WeatherDisplay:10.37,2013-05-01 09:57:00,
2013-05-01 05:02:00,60.0,53.5,29.88,East,91,0.1,1.1,79,0.00,,,0.00,WeatherDisplay:10.37,2013-05-01 10:02:00,
2013-05-01 05:07:00,60.0,53.5,29.88,East,90,0.0,0.0,79,0.00,,,0.00,WeatherDisplay:10.37,2013-05-01 10:07:00,
2013-05-01 05:12:00,60.0,53.5,29.88,ESE,103,0.0,1.1,79,0.00,,,0.00,WeatherDisplay:10.37,2013-05-01 10:12:00,
2013-05-01 05:17:00,60.0,53.5,29.88,East,94,0.0,1.1,79,0.00,,,0.00,WeatherDisplay:10.37,2013-05-01 10:17:00,
2013-05-01 05:22:00,60.1,53.2,29.88,ESE,117,0.0,1.1,78,0.00,,,0.00,WeatherDisplay:10.37,2013-05-01 10:22:00,
2013-05-01 05:27:00,60.1,53.6,29.88,ESE,103,0.0,0.0,79,0.00,,,0.00,WeatherDisplay:10.37,2013-05-01 10:27:00,
2013-05-01 05:32:00,60.0,53.5,29.88,East,86,0.0,0.0,79,0.00,,,0.00,WeatherDisplay:10.37,2013-05-01 10:32:00,
2013-05-01 05:37:00,60.1,53.6,29.88,East,92,0.4,2.3,79,0.00,,,0.00,WeatherDisplay:10.37,2013-05-01 10:37:00,
2013-05-01 05:42:00,60.2,53.7,29.88,ESE,103,0.4,1.1,79,0.00,,,0.00,WeatherDisplay:10.37,2013-05-01 10:42:00,
2013-05-01 05:47:00,60.2,53.7,29.88,ESE,119,0.0,0.0,79,0.00,,,0.00,WeatherDisplay:10.37,2013-05-01 10:47:00,
2013-05-01 05:52:00,60.1,53.6,29.88,ESE,108,0.0,0.0,79,0.00,,,0.00,WeatherDisplay:10.37,2013-05-01 10:52:00,
2013-05-01 05:57:00,59.9,53.4,29.88,ESE,104,0.0,0.0,79,0.00,,,0.00,WeatherDisplay:10.37,2013-05-01 10:57:00,
2013-05-01 06:02:00,59.8,53.3,29.89,ESE,104,0.0,0.0,79,0.00,CLR,,0.00,WeatherDisplay:10.37,2013-05-01 11:02:00,
2013-05-01 06:07:00,59.6,53.4,29.89,ESE,103,0.0,1.1,80,0.00,CLR,,0.00,WeatherDisplay:10.37,2013-05-01 11:07:00,
2013-05-01 06:12:00,59.5,53.3,29.89,East,82,0.0,1.0,80,0.00,CLR,,0.00,WeatherDisplay:10.37,2013-05-01 11:12:00,
2013-05-01 06:17:00,59.5,53.3,29.89,East,100,0.1,2.3,80,0.00,CLR,,0.00,WeatherDisplay:10.37,2013-05-01 11:17:00,
2013-05-01 06:22:00,59.6,53.4,29.89,East,84,0.0,1.1,80,0.00,CLR,,0.00,WeatherDisplay:10.37,2013-05-01 11:22:00,
2013-05-01 06:27:00,59.5,53.7,29.89,East,100,0.0,1.1,81,0.00,CLR,,0.00,WeatherDisplay:10.37,2013-05-01 11:27:00,
2013-05-01 06:32:00,59.7,53.9,29.89,East,99,0.0,0.0,81,0.00,CLR,,0.00,WeatherDisplay:10.37,2013-05-01 11:32:00,
2013-05-01 06:37:00,59.7,53.9,29.89,East,81,0.5,1.1,81,0.00,CLR,,0.00,WeatherDisplay:10.37,2013-05-01 11:37:00,
2013-05-01 06:42:00,59.8,54.0,29.89,SE,134,0.1,0.0,81,0.00,CLR,,0.00,WeatherDisplay:10.37,2013-05-01 11:42:00,
2013-05-01 06:47:00,59.9,54.1,29.90,ESE,102,0.1,0.0,81,0.00,CLR,,0.00,WeatherDisplay:10.37,2013-05-01 11:47:00,
2013-05-01 06:52:00,60.0,53.8,29.90,East,98,0.7,2.3,80,0.00,CLR,,0.00,WeatherDisplay:10.37,2013-05-01 11:52:00,
2013-05-01 06:57:00,60.4,54.2,29.90,East,92,1.6,3.5,80,0.00,CLR,,0.00,WeatherDisplay:10.37,2013-05-01 11:57:00,
2013-05-01 07:02:00,60.9,54.3,29.90,ESE,120,0.5,1.1,79,0.00,CLR,,0.00,WeatherDisplay:10.37,2013-05-01 12:02:00,
2013-05-01 07:07:00,61.5,54.9,29.90,ESE,108,0.8,2.0,79,0.00,CLR,,0.00,WeatherDisplay:10.37,2013-05-01 12:07:00,
2013-05-01 07:12:00,62.0,55.1,29.90,ESE,105,0.3,1.1,78,0.00,CLR,,0.00,WeatherDisplay:10.37,2013-05-01 12:12:00,
2013-05-01 07:17:00,62.6,55.3,29.90,East,93,0.2,1.1,77,0.00,CLR,,0.00,WeatherDisplay:10.37,2013-05-01 12:17:00,
2013-05-01 07:22:00,63.0,55.7,29.90,ESE,107,0.6,2.3,77,0.00,CLR,,0.00,WeatherDisplay:10.37,2013-05-01 12:22:00,
2013-05-01 07:27:00,63.3,55.6,29.91,ESE,102,1.7,3.0,76,0.00,CLR,,0.00,WeatherDisplay:10.37,2013-05-01 12:27:00,
2013-05-01 07:32:00,63.7,56.0,29.91,ENE,61,0.8,3.5,76,0.00,CLR,,0.00,WeatherDisplay:10.37,2013-05-01 12:32:00,
2013-05-01 07:37:00,64.0,56.3,29.91,ENE,78,1.5,3.5,76,0.00,CLR,,0.00,WeatherDisplay:10.37,2013-05-01 12:37:00,
2013-05-01 07:42:00,64.3,56.2,29.91,SE,136,0.0,1.1,75,0.00,CLR,,0.00,WeatherDisplay:10.37,2013-05-01 12:42:00,
2013-05-01 07:47:00,64.9,56.4,29.91,ESE,112,1.2,2.3,74,0.00,CLR,,0.00,WeatherDisplay:10.37,2013-05-01 12:47:00,
2013-05-01 07:52:00,65.1,56.2,29.91,East,81,1.1,3.5,73,0.00,CLR,,0.00,WeatherDisplay:10.37,2013-05-01 12:52:00,
2013-05-01 07:57:00,65.2,56.3,29.92,SE,138,1.2,3.5,73,0.00,CLR,,0.00,WeatherDisplay:10.37,2013-05-01 12:57:00,
2013-05-01 08:02:00,65.4,56.5,29.92,East,95,0.7,3.5,73,0.00,CLR,,0.00,WeatherDisplay:10.37,2013-05-01 13:02:00,
2013-05-01 08:07:00,65.7,56.8,29.92,ESE,105,2.5,2.5,73,0.00,CLR,,0.00,WeatherDisplay:10.37,2013-05-01 13:07:00,
2013-05-01 08:12:00,66.3,57.4,29.92,East,80,0.4,2.3,73,0.00,CLR,,0.00,WeatherDisplay:10.37,2013-05-01 13:12:00,
2013-05-01 08:17:00,66.7,57.0,29.92,East,96,1.5,3.5,71,0.00,CLR,,0.00,WeatherDisplay:10.37,2013-05-01 13:17:00,
2013-05-01 08:22:00,67.2,57.9,29.92,WSW,253,0.9,1.1,72,0.00,CLR,,0.00,WeatherDisplay:10.37,2013-05-01 13:22:00,
2013-05-01 08:28:00,67.6,57.9,29.92,ESE,107,0.1,2.3,71,0.00,CLR,,0.00,WeatherDisplay:10.37,2013-05-01 13:28:00,
2013-05-01 08:33:00,68.1,57.9,29.92,SE,127,2.8,2.8,70,0.00,CLR,,0.00,WeatherDisplay:10.37,2013-05-01 13:33:00,
2013-05-01 08:38:00,67.9,58.1,29.92,ESE,110,2.1,6.0,71,0.00,CLR,,0.00,WeatherDisplay:10.37,2013-05-01 13:38:00,
2013-05-01 08:43:00,67.9,58.1,29.92,ESE,102,1.3,3.5,71,0.00,CLR,,0.00,WeatherDisplay:10.37,2013-05-01 13:43:00,
2013-05-01 08:48:00,68.4,58.6,29.92,SE,143,1.6,3.5,71,0.00,CLR,,0.00,WeatherDisplay:10.37,2013-05-01 13:48:00,
2013-05-01 08:53:00,68.9,58.7,29.92,ESE,110,2.5,4.6,70,0.00,CLR,,0.00,WeatherDisplay:10.37,2013-05-01 13:53:00,
2013-05-01 08:58:00,69.0,58.8,29.92,SE,141,2.1,4.6,70,0.00,CLR,,0.00,WeatherDisplay:10.37,2013-05-01 13:58:00,
2013-05-01 09:03:00,69.2,59.0,29.92,SE,132,1.9,3.5,70,0.00,CLR,,0.00,WeatherDisplay:10.37,2013-05-01 14:03:00,
2013-05-01 09:08:00,69.2,59.4,29.92,East,87,0.8,2.3,71,0.00,CLR,,0.00,WeatherDisplay:10.37,2013-05-01 14:08:00,
2013-05-01 09:13:00,69.5,59.7,29.92,ESE,106,2.7,4.6,71,0.00,CLR,,0.00,WeatherDisplay:10.37,2013-05-01 14:13:00,
2013-05-01 09:18:00,69.7,59.5,29.92,ESE,110,2.8,3.5,70,0.00,CLR,,0.00,WeatherDisplay:10.37,2013-05-01 14:18:00,
2013-05-01 09:23:00,70.0,59.8,29.92,ENE,68,2.1,5.8,70,0.00,CLR,,0.00,WeatherDisplay:10.37,2013-05-01 14:23:00,
2013-05-01 09:28:00,70.3,60.4,29.93,ESE,105,1.3,3.5,71,0.00,CLR,,0.00,WeatherDisplay:10.37,2013-05-01 14:28:00,
2013-05-01 09:33:00,70.7,60.4,29.93,NE,49,2.6,3.5,70,0.00,CLR,,0.00,WeatherDisplay:10.37,2013-05-01 14:33:00,
2013-05-01 09:38:00,70.9,61.0,29.93,SE,131,3.8,5.8,71,0.00,CLR,,0.00,WeatherDisplay:10.37,2013-05-01 14:38:00,
2013-05-01 09:43:00,71.6,60.9,29.93,ESE,107,1.5,3.5,69,0.00,CLR,,0.00,WeatherDisplay:10.37,2013-05-01 14:43:00,
2013-05-01 09:48:00,71.4,60.7,29.93,East,88,2.3,3.5,69,0.00,CLR,,0.00,WeatherDisplay:10.37,2013-05-01 14:48:00,
2013-05-01 09:53:00,72.1,61.4,29.93,East,80,1.0,3.5,69,0.00,CLR,,0.00,WeatherDisplay:10.37,2013-05-01 14:53:00,
2013-05-01 09:58:00,72.4,62.1,29.93,ENE,77,2.3,4.6,70,0.00,CLR,,0.00,WeatherDisplay:10.37,2013-05-01 14:58:00,
2013-05-01 10:03:00,72.7,61.9,29.93,ESE,115,2.2,3.5,69,0.00,CLR,,0.00,WeatherDisplay:10.37,2013-05-01 15:03:00,
2013-05-01 10:08:00,73.3,62.1,29.94,ESE,122,0.3,1.1,68,0.00,CLR,,0.00,WeatherDisplay:10.37,2013-05-01 15:08:00,
2013-05-01 10:13:00,73.9,62.7,29.94,East,101,2.9,3.5,68,0.00,CLR,,0.00,WeatherDisplay:10.37,2013-05-01 15:13:00,
2013-05-01 10:18:00,73.9,62.2,29.94,SSE,155,3.8,4.6,67,0.00,CLR,,0.00,WeatherDisplay:10.37,2013-05-01 15:18:00,
2013-05-01 10:23:00,74.1,62.4,29.94,ENE,77,1.5,5.0,67,0.00,CLR,,0.00,WeatherDisplay:10.37,2013-05-01 15:23:00,
2013-05-01 10:28:00,74.5,62.8,29.94,SSW,198,2.5,3.5,67,0.00,CLR,,0.00,WeatherDisplay:10.37,2013-05-01 15:28:00,
2013-05-01 10:33:00,74.7,63.0,29.94,SW,231,2.2,4.0,67,0.00,CLR,,0.00,WeatherDisplay:10.37,2013-05-01 15:33:00,
2013-05-01 10:38:00,74.2,62.5,29.94,SE,128,3.4,5.8,67,0.00,CLR,,0.00,WeatherDisplay:10.37,2013-05-01 15:38:00,
2013-05-01 10:43:00,74.7,62.6,29.95,SE,126,2.9,5.0,66,0.00,CLR,,0.00,WeatherDisplay:10.37,2013-05-01 15:43:00,
2013-05-01 10:48:00,74.6,62.9,29.95,NE,54,1.0,4.6,67,0.00,CLR,,0.00,WeatherDisplay:10.37,2013-05-01 15:48:00,
2013-05-01 10:53:00,75.2,63.1,29.95,South,172,1.2,5.8,66,0.00,CLR,,0.00,WeatherDisplay:10.37,2013-05-01 15:53:00,
2013-05-01 10:58:00,74.8,62.7,29.95,ESE,117,4.1,10.4,66,0.00,CLR,,0.00,WeatherDisplay:10.37,2013-05-01 15:58:00,
2013-05-01 11:03:00,74.7,63.0,29.95,SSE,160,3.1,3.5,67,0.00,CLR,,0.00,WeatherDisplay:10.37,2013-05-01 16:03:00,
2013-05-01 11:08:00,75.1,63.4,29.95,ENE,76,2.4,4.6,67,0.00,CLR,,0.00,WeatherDisplay:10.37,2013-05-01 16:08:00,
2013-05-01 11:13:00,75.7,63.5,29.95,SSE,148,1.5,3.5,66,0.00,CLR,,0.00,WeatherDisplay:10.37,2013-05-01 16:13:00,
2013-05-01 11:18:00,76.2,63.1,29.95,SSE,167,3.4,5.8,64,0.00,CLR,,0.00,WeatherDisplay:10.37,2013-05-01 16:18:00,
2013-05-01 11:23:00,76.7,63.6,29.95,SE,133,2.0,4.6,64,0.00,CLR,,0.00,WeatherDisplay:10.37,2013-05-01 16:23:00,
2013-05-01 11:28:00,76.7,63.6,29.95,ESE,115,4.0,6.9,64,0.00,CLR,,0.00,WeatherDisplay:10.37,2013-05-01 16:28:00,
2013-05-01 11:33:00,76.7,63.6,29.95,SSE,159,2.3,3.5,64,0.00,CLR,,0.00,WeatherDisplay:10.37,2013-05-01 16:33:00,
2013-05-01 11:38:00,76.4,62.9,29.95,SE,126,5.4,11.5,63,0.00,CLR,,0.00,WeatherDisplay:10.37,2013-05-01 16:38:00,
2013-05-01 11:43:00,76.7,63.2,29.95,ESE,112,4.6,5.8,63,0.00,CLR,,0.00,WeatherDisplay:10.37,2013-05-01 16:43:00,
2013-05-01 11:48:00,76.3,63.2,29.95,SE,140,2.2,4.6,64,0.00,CLR,,0.00,WeatherDisplay:10.37,2013-05-01 16:48:00,
2013-05-01 11:53:00,76.2,63.1,29.96,East,101,3.1,6.9,64,0.00,CLR,,0.00,WeatherDisplay:10.37,2013-05-01 16:53:00,
2013-05-01 11:58:00,75.9,62.8,29.96,ESE,103,2.8,5.8,64,0.00,CLR,,0.00,WeatherDisplay:10.37,2013-05-01 16:58:00,
2013-05-01 12:03:00,75.7,62.7,29.95,ESE,107,1.1,4.6,64,0.00,CLR,,0.00,WeatherDisplay:10.37,2013-05-01 17:03:00,
2013-05-01 12:08:00,75.7,63.1,29.96,ESE,122,0.7,4.0,65,0.00,CLR,,0.00,WeatherDisplay:10.37,2013-05-01 17:08:00,
2013-05-01 12:13:00,75.5,63.3,29.96,East,89,1.2,4.6,66,0.00,CLR,,0.00,WeatherDisplay:10.37,2013-05-01 17:13:00,
2013-05-01 12:18:00,74.8,62.2,29.96,ESE,107,2.8,8.1,65,0.00,CLR,,0.00,WeatherDisplay:10.37,2013-05-01 17:18:00,
2013-05-01 12:23:00,74.2,62.5,29.96,South,175,3.0,9.2,67,0.00,CLR,,0.00,WeatherDisplay:10.37,2013-05-01 17:23:00,
2013-05-01 12:28:00,73.8,62.6,29.96,SW,234,3.1,3.5,68,0.00,CLR,,0.00,WeatherDisplay:10.37,2013-05-01 17:28:00,
2013-05-01 12:33:00,74.1,62.9,29.96,East,79,2.7,2.7,68,0.00,CLR,,0.00,WeatherDisplay:10.37,2013-05-01 17:33:00,
2013-05-01 12:38:00,73.7,62.9,29.96,ENE,76,2.7,4.6,69,0.00,CLR,,0.00,WeatherDisplay:10.37,2013-05-01 17:38:00,
2013-05-01 12:43:00,73.9,62.7,29.96,East,100,0.0,5.8,68,0.00,CLR,,0.00,WeatherDisplay:10.37,2013-05-01 17:43:00,
2013-05-01 12:48:00,74.3,63.1,29.95,ESE,105,0.2,3.5,68,0.00,CLR,,0.00,WeatherDisplay:10.37,2013-05-01 17:48:00,
2013-05-01 12:53:00,75.6,63.9,29.95,SE,139,1.6,3.5,67,0.00,CLR,,0.00,WeatherDisplay:10.37,2013-05-01 17:53:00,
2013-05-01 12:58:00,76.8,62.8,29.95,South,187,1.8,4.6,62,0.00,CLR,,0.00,WeatherDisplay:10.37,2013-05-01 17:58:00,
2013-05-01 13:03:00,77.4,63.4,29.95,ESE,113,1.0,1.1,62,0.00,CLR,,0.00,WeatherDisplay:10.37,2013-05-01 18:03:00,
2013-05-01 13:08:00,77.4,63.4,29.95,East,97,0.7,3.5,62,0.00,CLR,,0.00,WeatherDisplay:10.37,2013-05-01 18:08:00,
2013-05-01 13:13:00,77.9,63.4,29.95,SW,219,1.5,3.5,61,0.00,CLR,,0.00,WeatherDisplay:10.37,2013-05-01 18:13:00,
2013-05-01 13:19:00,78.6,62.6,29.95,East,83,3.1,9.2,58,0.00,CLR,,0.00,WeatherDisplay:10.37,2013-05-01 18:19:00,
2013-05-01 13:24:00,78.8,61.8,29.95,ESE,103,7.3,7.3,56,0.00,CLR,,0.00,WeatherDisplay:10.37,2013-05-01 18:24:00,
2013-05-01 13:29:00,78.3,62.3,29.95,SSE,149,3.6,6.9,58,0.00,CLR,,0.00,WeatherDisplay:10.37,2013-05-01 18:29:00,
2013-05-01 13:34:00,79.6,62.0,29.95,NE,49,2.7,5.8,55,0.00,CLR,,0.00,WeatherDisplay:10.37,2013-05-01 18:34:00,
2013-05-01 13:39:00,79.2,63.1,29.94,SE,141,3.5,3.5,58,0.00,CLR,,0.00,WeatherDisplay:10.37,2013-05-01 18:39:00,
2013-05-01 13:44:00,78.7,61.2,29.94,South,186,0.8,3.5,55,0.00,CLR,,0.00,WeatherDisplay:10.37,2013-05-01 18:44:00,
2013-05-01 13:49:00,80.1,62.5,29.94,ESE,118,2.1,4.6,55,0.00,CLR,,0.00,WeatherDisplay:10.37,2013-05-01 18:49:00,
2013-05-01 13:54:00,80.0,61.9,29.94,SE,127,3.5,4.6,54,0.00,CLR,,0.00,WeatherDisplay:10.37,2013-05-01 18:54:00,
2013-05-01 13:59:00,80.1,62.0,29.94,SSE,147,2.5,6.9,54,0.00,CLR,,0.00,WeatherDisplay:10.37,2013-05-01 18:59:00,
2013-05-01 14:04:00,80.5,61.3,29.94,SSE,153,3.8,5.8,52,0.00,CLR,,0.00,WeatherDisplay:10.37,2013-05-01 19:04:00,
2013-05-01 14:09:00,80.0,61.9,29.94,ENE,68,2.0,4.6,54,0.00,CLR,,0.00,WeatherDisplay:10.37,2013-05-01 19:09:00,
2013-05-01 14:14:00,79.1,60.5,29.94,ESE,122,5.6,11.5,53,0.00,CLR,,0.00,WeatherDisplay:10.37,2013-05-01 19:14:00,
2013-05-01 14:19:00,80.2,61.5,29.94,ESE,122,5.3,11.5,53,0.00,CLR,,0.00,WeatherDisplay:10.37,2013-05-01 19:19:00,
2013-05-01 14:24:00,80.9,62.2,29.94,ENE,65,2.4,3.5,53,0.00,CLR,,0.00,WeatherDisplay:10.37,2013-05-01 19:24:00,
2013-05-01 14:29:00,80.0,61.3,29.94,SSW,194,2.6,11.5,53,0.00,CLR,,0.00,WeatherDisplay:10.37,2013-05-01 19:29:00,
2013-05-01 14:34:00,80.1,61.4,29.94,SE,136,1.5,5.8,53,0.00,CLR,,0.00,WeatherDisplay:10.37,2013-05-01 19:34:00,
2013-05-01 14:39:00,80.0,61.9,29.94,SE,124,4.3,10.4,54,0.00,CLR,,0.00,WeatherDisplay:10.37,2013-05-01 19:39:00,
2013-05-01 14:44:00,79.8,62.2,29.94,West,264,2.9,4.6,55,0.00,CLR,,0.00,WeatherDisplay:10.37,2013-05-01 19:44:00,
2013-05-01 14:49:00,81.0,61.2,29.94,ESE,121,3.6,6.9,51,0.00,CLR,,0.00,WeatherDisplay:10.37,2013-05-01 19:49:00,
2013-05-01 14:54:00,81.1,59.6,29.94,SSE,168,6.6,11.5,48,0.00,CLR,,0.00,WeatherDisplay:10.37,2013-05-01 19:54:00,
2013-05-01 14:59:00,80.8,59.9,29.94,SSE,148,4.0,12.0,49,0.00,CLR,,0.00,WeatherDisplay:10.37,2013-05-01 19:59:00,
2013-05-01 15:04:00,80.8,60.4,29.94,SSW,203,4.0,6.0,50,0.00,CLR,,0.00,WeatherDisplay:10.37,2013-05-01 20:04:00,
2013-05-01 15:09:00,81.2,61.4,29.94,South,189,3.1,5.8,51,0.00,CLR,,0.00,WeatherDisplay:10.37,2013-05-01 20:09:00,
2013-05-01 15:14:00,81.2,60.8,29.94,SE,139,0.5,3.5,50,0.00,CLR,,0.00,WeatherDisplay:10.37,2013-05-01 20:14:00,
2013-05-01 15:19:00,81.1,60.1,29.94,WNW,287,1.8,4.6,49,0.00,CLR,,0.00,WeatherDisplay:10.37,2013-05-01 20:19:00,
2013-05-01 15:24:00,81.1,61.3,29.94,South,170,0.6,3.5,51,0.00,CLR,,0.00,WeatherDisplay:10.37,2013-05-01 20:24:00,
2013-05-01 15:29:00,81.5,61.6,29.94,East,95,1.4,6.9,51,0.00,CLR,,0.00,WeatherDisplay:10.37,2013-05-01 20:29:00,
2013-05-01 15:34:00,81.3,62.0,29.94,ESE,106,2.3,3.5,52,0.00,CLR,,0.00,WeatherDisplay:10.37,2013-05-01 20:34:00,
2013-05-01 15:39:00,81.1,60.7,29.94,SE,142,2.9,5.8,50,0.00,CLR,,0.00,WeatherDisplay:10.37,2013-05-01 20:39:00,
2013-05-01 15:44:00,81.7,60.7,29.93,East,90,3.8,8.1,49,0.00,CLR,,0.00,WeatherDisplay:10.37,2013-05-01 20:44:00,
2013-05-01 15:49:00,81.5,62.2,29.93,SSW,208,3.7,6.9,52,0.00,CLR,,0.00,WeatherDisplay:10.37,2013-05-01 20:49:00,
2013-05-01 15:54:00,81.7,61.2,29.93,ESE,113,2.3,4.0,50,0.00,CLR,,0.00,WeatherDisplay:10.37,2013-05-01 20:54:00,
2013-05-01 15:59:00,81.9,60.9,29.92,WSW,257,2.7,4.6,49,0.00,CLR,,0.00,WeatherDisplay:10.37,2013-05-01 20:59:00,
2013-05-01 16:04:00,82.4,60.7,29.93,ESE,107,4.0,6.9,48,0.00,CLR,,0.00,WeatherDisplay:10.37,2013-05-01 21:04:00,
2013-05-01 16:09:00,82.5,60.8,29.93,East,91,1.8,3.5,48,0.00,CLR,,0.00,WeatherDisplay:10.37,2013-05-01 21:09:00,
2013-05-01 16:14:00,82.8,61.1,29.92,West,279,3.3,9.2,48,0.00,CLR,,0.00,WeatherDisplay:10.37,2013-05-01 21:14:00,
2013-05-01 16:19:00,82.2,60.6,29.92,South,188,4.4,8.0,48,0.00,CLR,,0.00,WeatherDisplay:10.37,2013-05-01 21:19:00,
2013-05-01 16:24:00,82.0,60.4,29.93,ESE,110,3.5,8.1,48,0.00,CLR,,0.00,WeatherDisplay:10.37,2013-05-01 21:24:00,
2013-05-01 16:29:00,81.7,60.1,29.93,SSE,147,2.8,6.9,48,0.00,CLR,,0.00,WeatherDisplay:10.37,2013-05-01 21:29:00,
2013-05-01 16:34:00,81.2,60.8,29.92,SE,131,3.2,3.5,50,0.00,CLR,,0.00,WeatherDisplay:10.37,2013-05-01 21:34:00,
2013-05-01 16:39:00,81.6,61.7,29.92,SW,219,4.0,5.8,51,0.00,CLR,,0.00,WeatherDisplay:10.37,2013-05-01 21:39:00,
2013-05-01 16:44:00,81.2,61.4,29.92,East,100,5.5,8.1,51,0.00,CLR,,0.00,WeatherDisplay:10.37,2013-05-01 21:44:00,
2013-05-01 16:49:00,80.5,61.3,29.92,SW,234,3.4,10.4,52,0.00,CLR,,0.00,WeatherDisplay:10.37,2013-05-01 21:49:00,
2013-05-01 16:54:00,79.7,61.6,29.93,SE,145,9.0,13.8,54,0.00,CLR,,0.00,WeatherDisplay:10.37,2013-05-01 21:54:00,
2013-05-01 16:59:00,77.9,61.9,29.93,ESE,122,6.4,12.7,58,0.00,CLR,,0.00,WeatherDisplay:10.37,2013-05-01 21:59:00,
2013-05-01 17:04:00,77.4,61.9,29.93,WSW,242,2.7,4.0,59,0.00,CLR,,0.00,WeatherDisplay:10.37,2013-05-01 22:04:00,
2013-05-01 17:09:00,78.3,62.8,29.93,SSE,153,2.6,5.0,59,0.00,CLR,,0.00,WeatherDisplay:10.37,2013-05-01 22:09:00,
2013-05-01 17:14:00,77.9,61.4,29.93,SE,134,6.5,12.7,57,0.00,CLR,,0.00,WeatherDisplay:10.37,2013-05-01 22:14:00,
2013-05-01 17:19:00,77.6,61.2,29.93,SE,126,4.4,17.3,57,0.00,CLR,,0.00,WeatherDisplay:10.37,2013-05-01 22:19:00,
2013-05-01 17:24:00,78.1,61.6,29.93,SSE,167,3.2,8.1,57,0.00,CLR,,0.00,WeatherDisplay:10.37,2013-05-01 22:24:00,
2013-05-01 17:29:00,78.7,61.7,29.93,ESE,109,3.8,5.8,56,0.00,CLR,,0.00,WeatherDisplay:10.37,2013-05-01 22:29:00,
2013-05-01 17:34:00,78.6,61.1,29.93,SE,124,5.0,11.5,55,0.00,CLR,,0.00,WeatherDisplay:10.37,2013-05-01 22:34:00,
2013-05-01 17:39:00,78.2,60.7,29.93,SE,127,5.8,11.5,55,0.00,CLR,,0.00,WeatherDisplay:10.37,2013-05-01 22:39:00,
2013-05-01 17:44:00,77.9,60.9,29.94,NNE,29,3.8,5.8,56,0.00,CLR,,0.00,WeatherDisplay:10.37,2013-05-01 22:44:00,
2013-05-01 17:49:00,77.2,60.8,29.93,SSW,193,4.0,8.1,57,0.00,CLR,,0.00,WeatherDisplay:10.37,2013-05-01 22:49:00,
2013-05-01 17:54:00,76.5,61.1,29.94,SSE,165,5.5,6.9,59,0.00,CLR,,0.00,WeatherDisplay:10.37,2013-05-01 22:54:00,
2013-05-01 17:59:00,75.8,60.9,29.94,SSW,210,3.0,3.5,60,0.00,CLR,,0.00,WeatherDisplay:10.37,2013-05-01 22:59:00,
2013-05-01 18:04:00,75.1,60.7,29.94,East,82,3.7,4.6,61,0.00,CLR,,0.00,WeatherDisplay:10.37,2013-05-01 23:04:00,
2013-05-01 18:09:00,74.3,60.4,29.94,ESE,106,2.8,10.4,62,0.00,CLR,,0.00,WeatherDisplay:10.37,2013-05-01 23:09:00,
2013-05-01 18:14:00,73.9,61.0,29.94,SSE,166,2.3,6.9,64,0.00,CLR,,0.00,WeatherDisplay:10.37,2013-05-01 23:14:00,
2013-05-01 18:19:00,73.5,60.6,29.94,SSE,162,4.6,9.2,64,0.00,CLR,,0.00,WeatherDisplay:10.37,2013-05-01 23:19:00,
2013-05-01 18:24:00,73.3,60.4,29.94,SE,133,3.2,3.5,64,0.00,CLR,,0.00,WeatherDisplay:10.37,2013-05-01 23:24:00,
2013-05-01 18:29:00,73.2,60.7,29.94,SSE,152,2.9,4.6,65,0.00,CLR,,0.00,WeatherDisplay:10.37,2013-05-01 23:29:00,
2013-05-01 18:34:00,73.3,60.8,29.94,SE,128,1.7,6.9,65,0.00,CLR,,0.00,WeatherDisplay:10.37,2013-05-01 23:34:00,
2013-05-01 18:40:00,73.2,61.2,29.94,SSE,155,3.3,3.5,66,0.00,CLR,,0.00,WeatherDisplay:10.37,2013-05-01 23:40:00,
2013-05-01 18:45:00,73.2,61.6,29.94,SSW,198,2.7,8.1,67,0.00,CLR,,0.00,WeatherDisplay:10.37,2013-05-01 23:45:00,
2013-05-01 18:50:00,73.1,61.5,29.95,SSW,193,4.2,8.1,67,0.00,CLR,,0.00,WeatherDisplay:10.37,2013-05-01 23:50:00,
2013-05-01 18:55:00,73.1,61.9,29.95,SE,145,1.6,3.5,68,0.00,CLR,,0.00,WeatherDisplay:10.37,2013-05-01 23:55:00,
2013-05-01 19:00:00,73.3,62.1,29.95,SE,133,0.8,1.1,68,0.00,CLR,,0.00,WeatherDisplay:10.37,2013-05-02 00:00:00,
2013-05-01 19:05:00,73.4,62.2,29.95,South,191,2.4,6.0,68,0.00,CLR,,0.00,WeatherDisplay:10.37,2013-05-02 00:05:00,
2013-05-01 19:10:00,73.2,62.4,29.95,SSW,212,1.9,3.5,69,0.00,CLR,,0.00,WeatherDisplay:10.37,2013-05-02 00:10:00,
2013-05-01 19:15:00,72.9,62.1,29.95,ESE,113,2.5,4.0,69,0.00,CLR,,0.00,WeatherDisplay:10.37,2013-05-02 00:15:00,
2013-05-01 19:20:00,72.7,62.3,29.95,SSE,163,0.8,4.0,70,0.00,CLR,,0.00,WeatherDisplay:10.37,2013-05-02 00:20:00,
2013-05-01 19:25:00,72.6,62.7,29.96,SSE,153,1.5,3.5,71,0.00,CLR,,0.00,WeatherDisplay:10.37,2013-05-02 00:25:00,
2013-05-01 19:30:00,72.4,62.5,29.96,SE,143,2.9,4.6,71,0.00,CLR,,0.00,WeatherDisplay:10.37,2013-05-02 00:30:00,
2013-05-01 19:35:00,72.4,62.5,29.96,ESE,117,0.3,1.1,71,0.00,CLR,,0.00,WeatherDisplay:10.37,2013-05-02 00:35:00,
2013-05-01 19:40:00,72.3,62.8,29.96,SSE,160,0.4,2.3,72,0.00,CLR,,0.00,WeatherDisplay:10.37,2013-05-02 00:40:00,
2013-05-01 19:45:00,71.9,62.8,29.96,South,186,1.8,3.5,73,0.00,CLR,,0.00,WeatherDisplay:10.37,2013-05-02 00:45:00,
2013-05-01 19:50:00,71.5,62.8,29.96,ESE,107,0.0,0.0,74,0.00,CLR,,0.00,WeatherDisplay:10.37,2013-05-02 00:50:00,
2013-05-01 19:55:00,71.1,62.4,29.96,East,97,0.0,0.0,74,0.00,CLR,,0.00,WeatherDisplay:10.37,2013-05-02 00:55:00,
2013-05-01 20:00:00,70.8,62.5,29.96,ESE,110,0.0,0.0,75,0.00,CLR,,0.00,WeatherDisplay:10.37,2013-05-02 01:00:00,
2013-05-01 20:05:00,70.4,62.5,29.96,SE,128,0.0,0.0,76,0.00,CLR,,0.00,WeatherDisplay:10.37,2013-05-02 01:05:00,
2013-05-01 20:10:00,70.1,62.6,29.96,SE,139,0.0,0.0,77,0.00,CLR,,0.00,WeatherDisplay:10.37,2013-05-02 01:10:00,
2013-05-01 20:15:00,69.7,62.5,29.96,SW,217,0.0,0.0,78,0.00,CLR,,0.00,WeatherDisplay:10.37,2013-05-02 01:15:00,
2013-05-01 20:20:00,69.4,62.2,29.96,SE,135,0.0,0.0,78,0.00,CLR,,0.00,WeatherDisplay:10.37,2013-05-02 01:20:00,
2013-05-01 20:25:00,69.1,62.3,29.96,SE,140,0.0,0.0,79,0.00,CLR,,0.00,WeatherDisplay:10.37,2013-05-02 01:25:00,
2013-05-01 20:30:00,68.8,62.4,29.96,SE,129,0.0,0.0,80,0.00,CLR,,0.00,WeatherDisplay:10.37,2013-05-02 01:30:00,
2013-05-01 20:35:00,68.6,62.2,29.96,South,172,0.0,0.0,80,0.00,,,0.00,WeatherDisplay:10.37,2013-05-02 01:35:00,
2013-05-01 20:40:00,68.4,62.0,29.97,SSE,156,0.0,0.0,80,0.00,,,0.00,WeatherDisplay:10.37,2013-05-02 01:40:00,
2013-05-01 20:45:00,68.4,62.3,29.98,SSE,165,0.0,0.0,81,0.00,,,0.00,WeatherDisplay:10.37,2013-05-02 01:45:00,
2013-05-01 20:50:00,68.4,62.3,29.97,SSW,208,0.0,0.0,81,0.00,,,0.00,WeatherDisplay:10.37,2013-05-02 01:50:00,
2013-05-01 20:55:00,68.4,62.0,29.98,SSW,194,0.0,0.0,80,0.00,,,0.00,WeatherDisplay:10.37,2013-05-02 01:55:00,
2013-05-01 21:00:00,68.3,61.9,29.98,South,172,0.0,0.0,80,0.00,,,0.00,WeatherDisplay:10.37,2013-05-02 02:00:00,
2013-05-01 21:05:00,68.0,61.9,29.98,South,172,0.0,0.0,81,0.00,,,0.00,WeatherDisplay:10.37,2013-05-02 02:05:00,
2013-05-01 21:10:00,67.6,61.9,29.98,South,172,0.0,0.0,82,0.00,,,0.00,WeatherDisplay:10.37,2013-05-02 02:10:00,
2013-05-01 21:15:00,67.4,62.1,29.99,South,172,0.0,0.0,83,0.00,,,0.00,WeatherDisplay:10.37,2013-05-02 02:15:00,
2013-05-01 21:20:00,67.2,61.9,29.99,South,172,0.0,0.0,83,0.00,,,0.00,WeatherDisplay:10.37,2013-05-02 02:20:00,
2013-05-01 21:25:00,67.0,61.7,29.99,South,172,0.0,0.0,83,0.00,,,0.00,WeatherDisplay:10.37,2013-05-02 02:25:00,
2013-05-01 21:30:00,66.6,61.6,29.99,South,172,0.0,0.0,84,0.00,,,0.00,WeatherDisplay:10.37,2013-05-02 02:30:00,
2013-05-01 21:35:00,66.4,61.4,30.00,South,172,0.0,0.0,84,0.00,,,0.00,WeatherDisplay:10.37,2013-05-02 02:35:00,
2013-05-01 21:40:00,66.2,61.6,30.00,South,172,0.0,0.0,85,0.00,,,0.00,WeatherDisplay:10.37,2013-05-02 02:40:00,
2013-05-01 21:45:00,66.5,61.8,30.00,SSE,152,0.0,0.0,85,0.00,,,0.00,WeatherDisplay:10.37,2013-05-02 02:45:00,
2013-05-01 21:50:00,66.6,61.6,30.00,SSE,152,0.0,0.0,84,0.00,,,0.00,WeatherDisplay:10.37,2013-05-02 02:50:00,
2013-05-01 21:55:00,66.4,61.8,30.00,SSE,152,0.0,0.0,85,0.00,,,0.00,WeatherDisplay:10.37,2013-05-02 02:55:00,
2013-05-01 22:00:00,66.4,61.8,30.01,SSE,152,0.0,0.0,85,0.00,,,0.00,WeatherDisplay:10.37,2013-05-02 03:00:00,
2013-05-01 22:05:00,66.4,61.8,30.01,SSE,152,0.0,0.0,85,0.00,,,0.00,WeatherDisplay:10.37,2013-05-02 03:05:00,
2013-05-01 22:10:00,66.3,61.7,30.01,SSE,151,0.0,0.0,85,0.00,CLR,,0.00,WeatherDisplay:10.37,2013-05-02 03:10:00,
2013-05-01 22:15:00,66.6,61.9,30.02,SE,145,0.0,0.0,85,0.00,CLR,,0.00,WeatherDisplay:10.37,2013-05-02 03:15:00,
2013-05-01 22:20:00,66.6,61.6,30.02,SE,145,0.0,0.0,84,0.00,CLR,,0.00,WeatherDisplay:10.37,2013-05-02 03:20:00,
2013-05-01 22:25:00,66.6,61.6,30.02,SE,146,0.0,0.0,84,0.00,CLR,,0.00,WeatherDisplay:10.37,2013-05-02 03:25:00,
2013-05-01 22:30:00,66.4,61.8,30.02,SE,145,0.0,0.0,85,0.00,CLR,,0.00,WeatherDisplay:10.37,2013-05-02 03:30:00,
2013-05-01 22:35:00,66.1,61.5,30.02,SE,146,0.0,0.0,85,0.00,CLR,,0.00,WeatherDisplay:10.37,2013-05-02 03:35:00,
2013-05-01 22:40:00,65.9,61.6,30.02,SE,146,0.0,0.0,86,0.00,CLR,,0.00,WeatherDisplay:10.37,2013-05-02 03:40:00,
2013-05-01 22:45:00,65.8,61.5,30.02,SE,146,0.0,0.0,86,0.00,CLR,,0.00,WeatherDisplay:10.37,2013-05-02 03:45:00,
2013-05-01 22:50:00,65.6,61.3,30.02,SE,145,0.0,0.0,86,0.00,CLR,,0.00,WeatherDisplay:10.37,2013-05-02 03:50:00,
2013-05-01 22:55:00,65.4,61.1,30.02,SE,146,0.0,0.0,86,0.00,CLR,,0.00,WeatherDisplay:10.37,2013-05-02 03:55:00,
2013-05-01 23:00:00,64.9,61.3,30.02,SSW,195,0.0,0.0,88,0.00,CLR,,0.00,WeatherDisplay:10.37,2013-05-02 04:00:00,
2013-05-01 23:01:00,64.9,61.3,30.03,SSW,195,0.0,0.0,88,0.00,CLR,,0.00,WeatherDisplay:10.37,2013-05-02 04:01:00,
2013-05-01 23:06:00,64.4,60.8,30.02,SSW,195,0.0,0.0,88,0.00,CLR,,0.00,WeatherDisplay:10.37,2013-05-02 04:06:00,
2013-05-01 23:11:00,64.0,61.0,30.02,SSW,195,0.0,0.0,90,0.00,CLR,,0.00,WeatherDisplay:10.37,2013-05-02 04:11:00,
2013-05-01 23:16:00,63.8,60.8,30.02,SSW,195,0.0,0.0,90,0.00,CLR,,0.00,WeatherDisplay:10.37,2013-05-02 04:16:00,
2013-05-01 23:21:00,63.6,60.6,30.02,SSW,195,0.0,0.0,90,0.00,CLR,,0.00,WeatherDisplay:10.37,2013-05-02 04:21:00,
2013-05-01 23:26:00,63.6,60.9,30.02,SSW,195,0.0,0.0,91,0.00,CLR,,0.00,WeatherDisplay:10.37,2013-05-02 04:26:00,
2013-05-01 23:31:00,63.7,61.0,30.02,SSW,195,0.0,0.0,91,0.00,CLR,,0.00,WeatherDisplay:10.37,2013-05-02 04:31:00,
2013-05-01 23:36:00,64.1,61.4,30.02,SSW,195,0.0,0.0,91,0.00,CLR,,0.00,WeatherDisplay:10.37,2013-05-02 04:36:00,
2013-05-01 23:41:00,64.1,61.1,30.02,SSW,195,0.0,0.0,90,0.00,CLR,,0.00,WeatherDisplay:10.37,2013-05-02 04:41:00,
2013-05-01 23:46:00,64.2,61.2,30.02,SSW,195,0.0,0.0,90,0.00,CLR,,0.00,WeatherDisplay:10.37,2013-05-02 04:46:00,
2013-05-01 23:51:00,64.4,61.4,30.01,SSW,195,0.0,0.0,90,0.00,CLR,,0.00,WeatherDisplay:10.37,2013-05-02 04:51:00,
2013-05-01 23:56:00,64.5,61.2,30.01,SE,136,0.0,0.0,89,0.00,CLR,,0.00,WeatherDisplay:10.37,2013-05-02 04:56:00,